Location: B�rgermoos
(47.6500°N, 9.0667°E)
Time: 13:45:41
(UTC+00:00)

Vanguard 3 - Pass Details

Date: 11 August 2021
Orbit: 510 x 3260 km, 33.4° (Epoch: 26 September)

Event Time Altitude Azimuth Distance (km) Brightness Sun altitude
Rises 18:49:11 0° 267° (W) 5,377 12.6 -1.8°
Reaches altitude 10° 18:52:38 10° 259° (W) 4,722 12.0 -2.3°
Maximum altitude 19:05:08 37° 200° (SSW) 3,904 10.6 -4.2°
Drops below altitude 10° 19:21:42 10° 143° (SE) 6,192 11.0 -6.7°
Enters shadow 19:24:36 - 139° (SE) 6,719 11.2 -7.1°
